CDT,Max TemperatureF,Mean TemperatureF,Min TemperatureF,Max Dew PointF,MeanDew PointF,Min DewpointF,Max Humidity, Mean Humidity, Min Humidity, Max Sea Level PressureIn, Mean Sea Level PressureIn, Min Sea Level PressureIn, Max VisibilityMiles, Mean VisibilityMiles, Min VisibilityMiles, Max Wind SpeedMPH, Mean Wind SpeedMPH, Max Gust SpeedMPH,PrecipitationIn, CloudCover, Events, WindDirDegrees
2013-4-1,49,41,33,37,29,21,82,67,52,30.20,30.08,29.88,10,10,10,24,12,28,T,6,,43
2013-4-2,37,34,31,34,30,26,92,84,75,30.25,30.18,30.12,10,7,2,16,9,18,0.07,8,Rain,41
2013-4-3,38,35,31,31,30,28,92,84,76,30.27,30.21,30.17,10,8,2,15,8,20,0.03,8,Snow,48
2013-4-4,68,50,31,37,32,26,100,61,22,30.22,30.15,30.04,10,6,0,14,5,17,0.00,3,Fog,230
2013-4-5,85,62,38,37,32,21,85,48,11,30.06,29.84,29.60,10,10,10,38,19,47,0.00,0,,190
2013-4-6,73,63,52,36,31,28,54,37,19,29.83,29.74,29.58,10,10,6,30,11,36,0.00,1,,358
2013-4-7,80,63,46,46,38,32,71,45,19,29.76,29.64,29.52,10,10,10,12,5,16,0.00,0,,150
2013-4-8,86,71,56,55,45,23,86,49,11,29.63,29.44,29.25,10,10,9,29,11,37,0.00,4,,120
2013-4-9,66,44,22,57,27,9,84,67,50,30.09,29.71,29.28,10,9,5,38,29,48,0.00,6,,342
2013-4-10,44,32,20,10,8,6,57,40,22,30.18,30.08,29.96,10,10,10,33,21,40,0.00,2,,337
2013-4-11,68,44,20,28,18,10,68,42,15,30.04,29.82,29.66,10,10,10,26,12,38,0.00,1,,312
2013-4-12,69,54,38,35,30,27,70,46,22,29.94,29.87,29.77,10,10,10,17,8,23,0.00,1,,116
2013-4-13,82,59,35,43,36,27,89,51,13,29.93,29.68,29.38,10,10,10,37,16,46,0.00,0,,182
2013-4-14,75,62,48,49,32,14,77,46,14,29.65,29.44,29.27,10,10,10,38,18,48,0.00,0,,54
2013-4-15,71,53,35,36,24,12,61,40,19,29.79,29.69,29.59,10,10,10,28,13,37,0.00,0,,75
2013-4-16,57,48,38,37,29,22,82,63,43,30.03,29.91,29.82,10,10,10,23,14,28,0.00,5,,62
2013-4-17,42,37,32,40,36,30,100,91,82,29.95,29.83,29.73,10,5,2,32,17,36,0.08,8,Rain-Snow,27
2013-4-18,46,36,26,30,22,15,85,58,31,30.22,30.07,29.93,10,10,7,33,21,44,T,4,Snow,340
2013-4-19,66,45,24,20,15,10,81,47,12,30.23,30.09,29.93,10,10,10,12,10,26,0.00,0,,258
2013-4-20,69,53,37,26,19,14,44,29,14,29.91,29.83,29.78,10,10,10,17,7,26,0.00,2,,139
2013-4-21,76,54,32,40,29,25,75,46,16,29.99,29.92,29.87,10,10,10,17,6,31,0.00,0,,154
2013-4-22,81,56,31,45,38,26,93,55,16,30.06,29.83,29.66,10,10,4,44,16,52,T,2,Snow,53
2013-4-23,34,30,25,27,24,19,85,71,56,30.34,30.20,30.08,10,9,6,32,18,39,T,8,Snow,359
2013-4-24,65,42,19,25,17,13,91,53,14,30.33,30.23,30.13,10,10,10,16,8,24,0.00,0,,213
2013-4-25,70,52,33,34,22,11,61,37,12,30.22,30.10,29.92,10,10,10,29,16,39,0.00,0,,186
2013-4-26,73,59,45,52,43,28,80,59,38,30.12,29.96,29.86,10,9,2,40,12,51,0.31,3,Rain-Thunderstorm,297
2013-4-27,80,60,39,44,37,31,86,52,18,30.13,30.02,29.87,10,10,10,21,6,33,T,1,,151
2013-4-28,89,66,43,35,26,18,56,32,7,29.89,29.78,29.66,10,10,10,23,9,28,0.00,0,,199
2013-4-29,89,71,52,36,31,25,41,26,10,29.78,29.59,29.47,10,10,10,23,10,30,0.00,0,,208
2013-4-30,95,77,58,48,36,29,46,29,12,29.55,29.46,29.39,10,10,10,29,14,41,0.00,0,,157